Time,TemperatureF,DewpointF,PressureIn,WindDirection,WindDirectionDegrees,WindSpeedMPH,WindSpeedGustMPH,Humidity,HourlyPrecipIn,Conditions,Clouds,dailyrainin,SoftwareType,DateUTC
2013-04-06 00:00:00,55.3,52.1,29.94,West,274,0.0,3.0,89,0.00,,---,0.01,VWS V14.01,2013-04-06 04:00:00,
2013-04-06 00:05:00,55.4,51.9,29.94,West,274,0.0,0.0,88,0.00,,---,0.00,VWS V14.01,2013-04-06 04:05:00,
2013-04-06 00:10:00,55.4,51.9,29.94,West,274,0.0,0.0,88,0.00,,---,0.00,VWS V14.01,2013-04-06 04:10:00,
2013-04-06 00:15:00,55.4,51.6,29.94,West,274,0.0,0.0,87,0.00,,---,0.00,VWS V14.01,2013-04-06 04:15:00,
2013-04-06 00:20:00,55.4,51.6,29.94,West,274,0.0,0.0,87,0.00,,---,0.00,VWS V14.01,2013-04-06 04:20:00,
2013-04-06 00:25:00,55.6,51.8,29.94,West,274,0.0,1.0,87,0.00,,---,0.00,VWS V14.01,2013-04-06 04:25:00,
2013-04-06 00:30:00,55.6,51.8,29.94,West,274,0.0,0.0,87,0.00,,---,0.00,VWS V14.01,2013-04-06 04:30:00,
2013-04-06 00:35:00,55.6,51.8,29.94,West,274,0.0,0.0,87,0.00,,---,0.00,VWS V14.01,2013-04-06 04:35:00,
2013-04-06 00:40:00,55.6,51.8,29.94,West,274,0.0,0.0,87,0.00,,---,0.00,VWS V14.01,2013-04-06 04:40:00,
2013-04-06 00:45:00,55.6,51.8,29.95,West,274,0.0,0.0,87,0.00,,---,0.00,VWS V14.01,2013-04-06 04:45:00,
2013-04-06 00:50:00,55.6,51.8,29.95,West,274,0.0,0.0,87,0.00,,---,0.00,VWS V14.01,2013-04-06 04:50:00,
2013-04-06 00:55:00,55.6,51.8,29.95,West,274,0.0,0.0,87,0.00,,---,0.00,VWS V14.01,2013-04-06 04:55:00,
2013-04-06 01:00:00,55.6,52.1,29.95,West,274,0.0,0.0,88,0.00,,---,0.00,VWS V14.01,2013-04-06 05:00:00,
2013-04-06 01:05:00,55.6,52.1,29.95,West,274,0.0,0.0,88,0.00,,---,0.00,VWS V14.01,2013-04-06 05:05:00,
2013-04-06 01:10:00,55.4,51.9,29.95,West,274,0.0,0.0,88,0.00,,---,0.00,VWS V14.01,2013-04-06 05:10:00,
2013-04-06 01:15:00,55.4,51.9,29.95,West,274,0.0,0.0,88,0.00,,---,0.00,VWS V14.01,2013-04-06 05:15:00,
2013-04-06 01:20:00,55.4,51.9,29.95,West,274,0.0,0.0,88,0.00,,---,0.00,VWS V14.01,2013-04-06 05:20:00,
2013-04-06 01:25:00,55.4,51.9,29.95,West,274,0.0,0.0,88,0.00,,---,0.00,VWS V14.01,2013-04-06 05:25:00,
2013-04-06 01:30:00,55.3,51.8,29.95,West,274,0.0,0.0,88,0.00,,---,0.00,VWS V14.01,2013-04-06 05:30:00,
2013-04-06 01:35:00,55.3,52.1,29.95,West,274,0.0,0.0,89,0.00,,---,0.00,VWS V14.01,2013-04-06 05:35:00,
2013-04-06 01:40:00,55.3,52.1,29.95,West,274,0.0,0.0,89,0.00,,---,0.00,VWS V14.01,2013-04-06 05:40:00,
2013-04-06 01:45:00,55.3,52.1,29.95,West,274,0.0,0.0,89,0.00,,---,0.00,VWS V14.01,2013-04-06 05:45:00,
2013-04-06 01:50:00,55.3,52.1,29.95,West,274,0.0,0.0,89,0.00,,---,0.00,VWS V14.01,2013-04-06 05:50:00,
2013-04-06 01:55:00,55.3,52.1,29.95,West,274,0.0,0.0,89,0.00,,---,0.00,VWS V14.01,2013-04-06 05:55:00,
2013-04-06 02:00:00,55.3,52.1,29.95,West,274,0.0,0.0,89,0.00,,---,0.00,VWS V14.01,2013-04-06 06:00:00,
2013-04-06 02:05:00,55.3,52.4,29.95,West,274,0.0,0.0,90,0.00,,---,0.00,VWS V14.01,2013-04-06 06:05:00,
2013-04-06 02:10:00,55.3,52.4,29.95,West,274,0.0,0.0,90,0.00,,---,0.00,VWS V14.01,2013-04-06 06:10:00,
2013-04-06 02:16:00,55.3,52.4,29.94,West,274,0.0,0.0,90,0.00,,---,0.00,VWS V14.01,2013-04-06 06:16:00,
2013-04-06 02:21:00,55.3,52.4,29.94,West,274,0.0,0.0,90,0.00,,---,0.00,VWS V14.01,2013-04-06 06:21:00,
2013-04-06 02:26:00,55.1,52.2,29.94,West,274,0.0,0.0,90,0.00,,---,0.00,VWS V14.01,2013-04-06 06:26:00,
2013-04-06 02:30:00,55.1,52.5,29.94,West,274,0.0,0.0,91,0.00,,---,0.00,VWS V14.01,2013-04-06 06:30:00,
2013-04-06 02:31:00,55.1,52.5,29.94,West,274,0.0,0.0,91,0.00,,---,0.00,VWS V14.01,2013-04-06 06:31:00,
2013-04-06 02:36:00,55.1,52.5,29.94,West,274,0.0,0.0,91,0.00,,---,0.00,VWS V14.01,2013-04-06 06:36:00,
2013-04-06 02:41:00,55.0,52.4,29.94,West,274,0.0,0.0,91,0.00,,---,0.00,VWS V14.01,2013-04-06 06:41:00,
2013-04-06 02:46:00,55.0,52.4,29.95,West,274,0.0,1.0,91,0.00,,---,0.00,VWS V14.01,2013-04-06 06:46:00,
2013-04-06 02:51:00,54.8,52.2,29.95,West,274,0.0,1.0,91,0.00,,---,0.00,VWS V14.01,2013-04-06 06:51:00,
2013-04-06 02:56:00,54.7,52.1,29.95,West,272,0.0,1.0,91,0.00,,---,0.00,VWS V14.01,2013-04-06 06:56:00,
2013-04-06 03:00:00,54.7,52.1,29.95,West,272,0.0,2.0,91,0.00,,---,0.00,VWS V14.01,2013-04-06 07:00:00,
2013-04-06 03:01:00,54.7,52.1,29.95,West,272,0.0,0.0,91,0.00,,---,0.00,VWS V14.01,2013-04-06 07:01:00,
2013-04-06 03:06:00,54.4,51.8,29.95,West,272,0.0,1.0,91,0.00,,---,0.00,VWS V14.01,2013-04-06 07:06:00,
2013-04-06 03:11:00,54.2,51.6,29.95,West,272,0.0,1.0,91,0.00,,---,0.00,VWS V14.01,2013-04-06 07:11:00,
2013-04-06 03:16:00,54.1,51.8,29.94,West,272,0.0,1.0,92,0.00,,---,0.00,VWS V14.01,2013-04-06 07:16:00,
2013-04-06 03:21:00,53.9,51.6,29.94,West,272,0.0,1.0,92,0.00,,---,0.00,VWS V14.01,2013-04-06 07:21:00,
2013-04-06 03:26:00,53.9,51.6,29.94,West,272,0.0,1.0,92,0.00,,---,0.00,VWS V14.01,2013-04-06 07:26:00,
2013-04-06 03:30:00,53.9,51.9,29.94,West,272,0.0,1.0,93,0.00,,---,0.00,VWS V14.01,2013-04-06 07:30:00,
2013-04-06 03:31:00,53.9,51.9,29.94,West,272,0.0,0.0,93,0.00,,---,0.00,VWS V14.01,2013-04-06 07:31:00,
2013-04-06 03:36:00,53.8,51.8,29.94,West,272,0.0,0.0,93,0.00,,---,0.00,VWS V14.01,2013-04-06 07:36:00,
2013-04-06 03:41:00,53.6,51.6,29.94,West,272,0.0,0.0,93,0.00,,---,0.00,VWS V14.01,2013-04-06 07:41:00,
2013-04-06 03:46:00,53.3,51.3,29.94,West,272,0.0,0.0,93,0.00,,---,0.00,VWS V14.01,2013-04-06 07:46:00,
2013-04-06 03:51:00,53.2,51.2,29.94,West,272,0.0,0.0,93,0.00,,---,0.00,VWS V14.01,2013-04-06 07:51:00,
2013-04-06 03:56:00,53.1,51.4,29.94,West,272,0.0,0.0,94,0.00,,---,0.00,VWS V14.01,2013-04-06 07:56:00,
2013-04-06 04:00:00,52.9,51.2,29.94,West,272,0.0,0.0,94,0.00,,---,0.00,VWS V14.01,2013-04-06 08:00:00,
2013-04-06 04:01:00,52.9,51.2,29.94,West,272,0.0,0.0,94,0.00,,---,0.00,VWS V14.01,2013-04-06 08:01:00,
2013-04-06 04:06:00,52.8,51.4,29.94,West,272,0.0,0.0,95,0.00,,---,0.00,VWS V14.01,2013-04-06 08:06:00,
2013-04-06 04:11:00,52.8,51.4,29.94,West,272,0.0,0.0,95,0.00,,---,0.00,VWS V14.01,2013-04-06 08:11:00,
2013-04-06 04:17:00,52.8,51.4,29.95,West,272,0.0,0.0,95,0.00,,---,0.00,VWS V14.01,2013-04-06 08:17:00,
2013-04-06 04:22:00,52.8,51.4,29.95,West,272,0.0,0.0,95,0.00,,---,0.00,VWS V14.01,2013-04-06 08:22:00,
2013-04-06 04:27:00,52.8,51.7,29.95,West,272,0.0,0.0,96,0.00,,---,0.00,VWS V14.01,2013-04-06 08:27:00,
2013-04-06 04:30:00,52.6,51.5,29.95,West,272,0.0,0.0,96,0.00,,---,0.00,VWS V14.01,2013-04-06 08:30:00,
2013-04-06 04:32:00,52.8,51.7,29.95,West,272,0.0,0.0,96,0.00,,---,0.00,VWS V14.01,2013-04-06 08:32:00,
2013-04-06 04:37:00,52.6,51.5,29.95,West,272,0.0,0.0,96,0.00,,---,0.00,VWS V14.01,2013-04-06 08:37:00,
2013-04-06 04:42:00,52.6,51.5,29.95,West,272,0.0,0.0,96,0.00,,---,0.00,VWS V14.01,2013-04-06 08:42:00,
2013-04-06 04:47:00,52.6,51.5,29.96,West,272,0.0,0.0,96,0.00,,---,0.00,VWS V14.01,2013-04-06 08:47:00,
2013-04-06 04:52:00,52.6,51.5,29.96,West,272,0.0,0.0,96,0.00,,---,0.00,VWS V14.01,2013-04-06 08:52:00,
2013-04-06 04:57:00,52.5,51.4,29.96,West,272,0.0,2.0,96,0.00,,---,0.00,VWS V14.01,2013-04-06 08:57:00,
2013-04-06 05:00:00,52.5,51.4,29.97,West,272,0.0,2.0,96,0.00,,---,0.00,VWS V14.01,2013-04-06 09:00:00,
2013-04-06 05:02:00,52.3,51.2,29.97,West,272,0.0,2.0,96,0.00,,---,0.00,VWS V14.01,2013-04-06 09:02:00,
2013-04-06 05:07:00,52.3,51.5,29.97,West,272,0.0,2.0,97,0.00,,---,0.00,VWS V14.01,2013-04-06 09:07:00,
2013-04-06 05:12:00,52.2,51.4,29.97,West,272,0.0,2.0,97,0.00,,---,0.00,VWS V14.01,2013-04-06 09:12:00,
2013-04-06 05:17:00,52.2,51.4,29.97,West,272,0.0,2.0,97,0.00,,---,0.00,VWS V14.01,2013-04-06 09:17:00,
2013-04-06 05:22:00,52.2,51.4,29.97,West,272,0.0,2.0,97,0.00,,---,0.00,VWS V14.01,2013-04-06 09:22:00,
2013-04-06 05:27:00,52.0,51.2,29.97,West,272,0.0,2.0,97,0.00,,---,0.00,VWS V14.01,2013-04-06 09:27:00,
2013-04-06 05:30:00,52.0,51.2,29.97,West,272,0.0,2.0,97,0.00,,---,0.00,VWS V14.01,2013-04-06 09:30:00,
2013-04-06 05:32:00,52.0,51.2,29.97,West,272,0.0,0.0,97,0.00,,---,0.00,VWS V14.01,2013-04-06 09:32:00,
2013-04-06 05:37:00,52.0,51.2,29.97,West,274,0.0,3.0,97,0.00,,---,0.00,VWS V14.01,2013-04-06 09:37:00,
2013-04-06 05:42:00,52.0,51.2,29.97,West,274,0.0,3.0,97,0.00,,---,0.00,VWS V14.01,2013-04-06 09:42:00,
2013-04-06 05:47:00,52.0,51.2,29.98,West,274,0.0,3.0,97,0.00,,---,0.00,VWS V14.01,2013-04-06 09:47:00,
2013-04-06 05:52:00,52.0,51.2,29.98,West,274,0.0,3.0,97,0.00,,---,0.00,VWS V14.01,2013-04-06 09:52:00,
2013-04-06 05:57:00,52.0,51.2,29.98,West,274,0.0,3.0,97,0.00,,---,0.00,VWS V14.01,2013-04-06 09:57:00,
2013-04-06 06:00:00,52.0,51.2,29.99,West,274,0.0,3.0,97,0.00,,---,0.00,VWS V14.01,2013-04-06 10:00:00,
2013-04-06 06:02:00,52.0,51.2,29.99,West,274,1.0,2.0,97,0.00,,---,0.00,VWS V14.01,2013-04-06 10:02:00,
2013-04-06 06:07:00,52.0,51.2,29.99,West,274,0.0,2.0,97,0.00,,---,0.00,VWS V14.01,2013-04-06 10:07:00,
2013-04-06 06:12:00,52.0,51.2,29.99,West,274,0.0,2.0,97,0.00,,---,0.00,VWS V14.01,2013-04-06 10:12:00,
2013-04-06 06:17:00,51.9,51.1,29.99,West,274,0.0,2.0,97,0.00,,---,0.00,VWS V14.01,2013-04-06 10:17:00,
2013-04-06 06:23:00,51.9,51.1,29.99,West,274,0.0,2.0,97,0.00,,---,0.00,VWS V14.01,2013-04-06 10:23:00,
2013-04-06 06:28:00,51.7,50.9,29.99,West,274,0.0,2.0,97,0.00,,---,0.00,VWS V14.01,2013-04-06 10:28:00,
2013-04-06 06:30:00,51.7,50.9,30.00,West,274,0.0,2.0,97,0.00,,---,0.00,VWS V14.01,2013-04-06 10:30:00,
2013-04-06 06:33:00,51.7,50.9,30.00,West,274,0.0,0.0,97,0.00,,---,0.00,VWS V14.01,2013-04-06 10:33:00,
2013-04-06 06:38:00,51.6,50.8,30.00,West,274,0.0,1.0,97,0.00,,---,0.00,VWS V14.01,2013-04-06 10:38:00,
2013-04-06 06:43:00,51.6,50.8,30.00,West,274,0.0,1.0,97,0.00,,---,0.00,VWS V14.01,2013-04-06 10:43:00,
2013-04-06 06:48:00,51.4,50.6,30.00,West,274,0.0,1.0,97,0.00,,---,0.00,VWS V14.01,2013-04-06 10:48:00,
2013-04-06 06:53:00,51.3,50.5,30.00,West,274,0.0,1.0,97,0.00,,---,0.00,VWS V14.01,2013-04-06 10:53:00,
2013-04-06 06:58:00,51.1,50.3,30.00,West,274,0.0,1.0,97,0.00,,---,0.00,VWS V14.01,2013-04-06 10:58:00,
2013-04-06 07:00:00,51.1,50.3,30.00,West,274,0.0,1.0,97,0.00,,---,0.00,VWS V14.01,2013-04-06 11:00:00,
2013-04-06 07:03:00,51.0,50.2,30.00,West,274,0.0,0.0,97,0.00,,---,0.00,VWS V14.01,2013-04-06 11:03:00,
2013-04-06 07:08:00,51.0,50.2,30.00,West,274,0.0,0.0,97,0.00,,---,0.00,VWS V14.01,2013-04-06 11:08:00,
2013-04-06 07:13:00,50.8,50.0,30.00,West,274,0.0,0.0,97,0.00,,---,0.00,VWS V14.01,2013-04-06 11:13:00,
2013-04-06 07:18:00,50.8,50.0,30.00,West,274,0.0,0.0,97,0.00,,---,0.00,VWS V14.01,2013-04-06 11:18:00,
2013-04-06 07:23:00,50.8,50.3,30.00,West,274,0.0,0.0,98,0.00,,---,0.00,VWS V14.01,2013-04-06 11:23:00,
2013-04-06 07:28:00,51.0,50.5,30.00,West,274,0.0,0.0,98,0.00,,---,0.00,VWS V14.01,2013-04-06 11:28:00,
2013-04-06 07:30:00,51.0,50.5,30.01,West,274,0.0,0.0,98,0.00,,---,0.00,VWS V14.01,2013-04-06 11:30:00,
2013-04-06 07:33:00,51.0,50.5,30.01,West,274,0.0,0.0,98,0.00,,---,0.00,VWS V14.01,2013-04-06 11:33:00,
2013-04-06 07:38:00,51.1,50.6,30.01,West,274,0.0,0.0,98,0.00,,---,0.00,VWS V14.01,2013-04-06 11:38:00,
2013-04-06 07:43:00,51.1,50.6,30.01,West,274,0.0,0.0,98,0.00,,---,0.00,VWS V14.01,2013-04-06 11:43:00,
2013-04-06 07:48:00,51.1,50.6,30.01,West,274,0.0,0.0,98,0.00,,---,0.00,VWS V14.01,2013-04-06 11:48:00,
2013-04-06 07:53:00,51.3,50.8,30.01,West,274,0.0,0.0,98,0.00,,---,0.00,VWS V14.01,2013-04-06 11:53:00,
2013-04-06 07:58:00,51.4,51.1,30.01,West,274,0.0,0.0,99,0.00,,---,0.00,VWS V14.01,2013-04-06 11:58:00,
2013-04-06 08:00:00,51.6,51.3,30.01,West,274,0.0,0.0,99,0.00,,---,0.00,VWS V14.01,2013-04-06 12:00:00,
2013-04-06 08:03:00,51.6,51.3,30.01,West,274,0.0,0.0,99,0.00,,---,0.00,VWS V14.01,2013-04-06 12:03:00,
2013-04-06 08:08:00,51.7,51.4,30.01,West,274,0.0,0.0,99,0.00,,---,0.00,VWS V14.01,2013-04-06 12:08:00,
2013-04-06 08:13:00,51.9,51.6,30.01,WNW,302,0.0,0.0,99,0.00,,---,0.00,VWS V14.01,2013-04-06 12:13:00,
2013-04-06 08:18:00,52.2,51.9,30.02,WNW,302,0.0,0.0,99,0.00,,---,0.00,VWS V14.01,2013-04-06 12:18:00,
2013-04-06 08:23:00,52.8,52.5,30.02,WNW,302,0.0,0.0,99,0.00,,---,0.00,VWS V14.01,2013-04-06 12:23:00,
2013-04-06 08:28:00,53.2,52.9,30.02,WNW,302,0.0,0.0,99,0.00,,---,0.00,VWS V14.01,2013-04-06 12:28:00,
2013-04-06 08:30:00,53.3,53.0,30.03,WNW,302,0.0,0.0,99,0.00,,---,0.00,VWS V14.01,2013-04-06 12:30:00,
2013-04-06 08:33:00,53.8,53.5,30.03,WNW,302,0.0,0.0,99,0.00,,---,0.00,VWS V14.01,2013-04-06 12:33:00,
2013-04-06 08:38:00,54.5,54.2,30.03,WNW,296,3.0,3.0,99,0.00,,---,0.00,VWS V14.01,2013-04-06 12:38:00,
2013-04-06 08:43:00,55.3,54.5,30.03,WNW,299,0.0,3.0,97,0.00,,---,0.00,VWS V14.01,2013-04-06 12:43:00,
2013-04-06 08:48:00,56.0,54.9,30.03,NNW,330,0.0,3.0,96,0.00,,---,0.00,VWS V14.01,2013-04-06 12:48:00,
2013-04-06 08:53:00,56.7,54.7,30.03,North,0,0.0,3.0,93,0.00,,---,0.00,VWS V14.01,2013-04-06 12:53:00,
2013-04-06 08:58:00,57.2,54.3,30.03,North,357,0.0,3.0,90,0.00,,---,0.00,VWS V14.01,2013-04-06 12:58:00,
2013-04-06 09:00:00,57.3,53.8,30.03,NW,315,3.0,5.0,88,0.00,,---,0.00,VWS V14.01,2013-04-06 13:00:00,
2013-04-06 09:03:00,57.5,53.3,30.03,North,356,0.0,3.0,86,0.00,,---,0.00,VWS V14.01,2013-04-06 13:03:00,
2013-04-06 09:08:00,58.1,53.6,30.03,North,349,0.0,3.0,85,0.00,,---,0.00,VWS V14.01,2013-04-06 13:08:00,
2013-04-06 09:13:00,58.6,53.8,30.03,North,350,0.0,3.0,84,0.00,,---,0.00,VWS V14.01,2013-04-06 13:13:00,
2013-04-06 09:18:00,59.0,53.5,30.04,NE,44,0.0,3.0,82,0.00,,---,0.00,VWS V14.01,2013-04-06 13:18:00,
2013-04-06 09:23:00,59.3,53.5,30.04,North,357,0.0,3.0,81,0.00,,---,0.00,VWS V14.01,2013-04-06 13:23:00,
2013-04-06 09:28:00,59.6,53.8,30.04,North,357,0.0,3.0,81,0.00,,---,0.00,VWS V14.01,2013-04-06 13:28:00,
2013-04-06 09:30:00,59.6,53.4,30.04,NW,325,0.0,6.0,80,0.00,,---,0.00,VWS V14.01,2013-04-06 13:30:00,
2013-04-06 09:33:00,59.6,53.1,30.04,North,354,1.0,5.0,79,0.00,,---,0.00,VWS V14.01,2013-04-06 13:33:00,
2013-04-06 09:38:00,59.8,52.9,30.04,North,0,0.0,5.0,78,0.00,,---,0.00,VWS V14.01,2013-04-06 13:38:00,
2013-04-06 09:43:00,60.4,53.9,30.04,North,0,0.0,5.0,79,0.00,,---,0.00,VWS V14.01,2013-04-06 13:43:00,
2013-04-06 09:48:00,60.4,52.8,30.05,WNW,299,0.0,5.0,76,0.00,,---,0.00,VWS V14.01,2013-04-06 13:48:00,
2013-04-06 09:53:00,60.5,52.9,30.05,North,6,0.0,5.0,76,0.00,,---,0.00,VWS V14.01,2013-04-06 13:53:00,
2013-04-06 09:58:00,60.7,53.1,30.05,North,0,0.0,5.0,76,0.00,,---,0.00,VWS V14.01,2013-04-06 13:58:00,
2013-04-06 10:00:00,60.7,53.1,30.05,NNE,14,0.0,5.0,76,0.00,,---,0.00,VWS V14.01,2013-04-06 14:00:00,
2013-04-06 10:03:00,60.9,53.7,30.05,NNE,14,0.0,0.0,77,0.00,,---,0.00,VWS V14.01,2013-04-06 14:03:00,
2013-04-06 10:08:00,61.2,53.2,30.05,NNE,28,0.0,9.0,75,0.00,,---,0.00,VWS V14.01,2013-04-06 14:08:00,
2013-04-06 10:13:00,61.0,53.0,30.05,North,354,0.0,9.0,75,0.00,,---,0.00,VWS V14.01,2013-04-06 14:13:00,
2013-04-06 10:18:00,61.5,53.9,30.05,NNW,333,0.0,9.0,76,0.00,,---,0.00,VWS V14.01,2013-04-06 14:18:00,
2013-04-06 10:23:00,61.6,53.6,30.05,North,0,1.0,9.0,75,0.00,,---,0.00,VWS V14.01,2013-04-06 14:23:00,
2013-04-06 10:28:00,61.6,53.2,30.05,North,0,0.0,9.0,74,0.00,,---,0.00,VWS V14.01,2013-04-06 14:28:00,
2013-04-06 10:30:00,61.8,53.1,30.05,NNE,28,0.0,9.0,73,0.00,,---,0.00,VWS V14.01,2013-04-06 14:30:00,
2013-04-06 10:33:00,62.1,53.7,30.05,North,0,1.0,2.0,74,0.00,,---,0.00,VWS V14.01,2013-04-06 14:33:00,
2013-04-06 10:38:00,62.3,53.5,30.05,North,11,0.0,3.0,73,0.00,,---,0.00,VWS V14.01,2013-04-06 14:38:00,
2013-04-06 10:43:00,62.6,54.6,30.05,North,356,0.0,3.0,75,0.00,,---,0.00,VWS V14.01,2013-04-06 14:43:00,
2013-04-06 10:48:00,62.9,53.8,30.06,North,7,2.0,3.0,72,0.00,,---,0.00,VWS V14.01,2013-04-06 14:48:00,
2013-04-06 10:53:00,62.9,53.8,30.06,North,356,0.0,3.0,72,0.00,,---,0.00,VWS V14.01,2013-04-06 14:53:00,
2013-04-06 10:58:00,63.1,53.2,30.06,NNE,16,0.0,5.0,70,0.00,,---,0.00,VWS V14.01,2013-04-06 14:58:00,
2013-04-06 11:00:00,63.1,53.6,30.07,North,0,0.0,5.0,71,0.00,,---,0.00,VWS V14.01,2013-04-06 15:00:00,
2013-04-06 11:03:00,63.4,53.8,30.07,NNW,347,0.0,2.0,71,0.00,,---,0.00,VWS V14.01,2013-04-06 15:03:00,
2013-04-06 11:08:00,63.5,52.8,30.07,NE,44,0.0,5.0,68,0.00,,---,0.00,VWS V14.01,2013-04-06 15:08:00,
2013-04-06 11:13:00,64.2,53.8,30.07,North,8,0.0,5.0,69,0.00,,---,0.00,VWS V14.01,2013-04-06 15:13:00,
2013-04-06 11:18:00,64.7,53.9,30.07,North,1,2.0,5.0,68,0.00,,---,0.00,VWS V14.01,2013-04-06 15:18:00,
2013-04-06 11:23:00,64.8,53.6,30.07,NNW,333,1.0,5.0,67,0.00,,---,0.00,VWS V14.01,2013-04-06 15:23:00,
2013-04-06 11:28:00,64.7,53.1,30.07,North,0,3.0,5.0,66,0.00,,---,0.00,VWS V14.01,2013-04-06 15:28:00,
2013-04-06 11:30:00,64.5,52.9,30.07,North,0,0.0,6.0,66,0.00,,---,0.00,VWS V14.01,2013-04-06 15:30:00,
2013-04-06 11:33:00,64.3,53.1,30.07,NNW,346,2.0,3.0,67,0.00,,---,0.00,VWS V14.01,2013-04-06 15:33:00,
2013-04-06 11:38:00,64.3,52.7,30.07,NE,35,0.0,6.0,66,0.00,,---,0.00,VWS V14.01,2013-04-06 15:38:00,
2013-04-06 11:43:00,64.5,52.9,30.07,North,0,0.0,7.0,66,0.00,,---,0.00,VWS V14.01,2013-04-06 15:43:00,
2013-04-06 11:48:00,64.8,53.6,30.07,North,357,0.0,7.0,67,0.00,,---,0.00,VWS V14.01,2013-04-06 15:48:00,
2013-04-06 11:53:00,64.7,54.3,30.07,North,357,0.0,7.0,69,0.00,,---,0.00,VWS V14.01,2013-04-06 15:53:00,
2013-04-06 11:58:00,65.0,53.8,30.07,NW,323,0.0,7.0,67,0.00,,---,0.00,VWS V14.01,2013-04-06 15:58:00,
2013-04-06 12:00:00,65.2,54.4,30.08,NNW,332,0.0,7.0,68,0.00,,---,0.00,VWS V14.01,2013-04-06 16:00:00,
2013-04-06 12:03:00,65.5,54.7,30.08,North,359,0.0,1.0,68,0.00,,---,0.00,VWS V14.01,2013-04-06 16:03:00,
2013-04-06 12:08:00,65.8,55.4,30.08,WNW,289,0.0,5.0,69,0.00,,---,0.00,VWS V14.01,2013-04-06 16:08:00,
2013-04-06 12:13:00,65.6,54.0,30.08,North,0,5.0,5.0,66,0.00,,---,0.00,VWS V14.01,2013-04-06 16:13:00,
2013-04-06 12:18:00,65.3,53.7,30.08,North,0,2.0,5.0,66,0.00,,---,0.00,VWS V14.01,2013-04-06 16:18:00,
2013-04-06 12:23:00,65.3,54.1,30.08,North,350,1.0,5.0,67,0.02,,---,0.02,VWS V14.01,2013-04-06 16:23:00,
2013-04-06 12:28:00,65.2,54.0,30.08,North,0,2.0,5.0,67,0.02,,---,0.02,VWS V14.01,2013-04-06 16:28:00,
2013-04-06 12:30:00,65.2,54.0,30.08,North,6,0.0,5.0,67,0.02,,---,0.02,VWS V14.01,2013-04-06 16:30:00,
2013-04-06 12:33:00,65.2,54.4,30.08,NNW,347,3.0,3.0,68,0.02,,---,0.02,VWS V14.01,2013-04-06 16:33:00,
2013-04-06 12:38:00,64.7,53.5,30.08,NE,35,0.0,6.0,67,0.02,,---,0.02,VWS V14.01,2013-04-06 16:38:00,
2013-04-06 13:22:00,66.0,54.3,30.07,North,11,0.0,0.0,66,0.02,,---,0.02,VWS V14.01,2013-04-06 17:22:00,
2013-04-06 13:27:00,66.1,55.2,30.07,North,352,0.0,3.0,68,0.02,,---,0.02,VWS V14.01,2013-04-06 17:27:00,
2013-04-06 13:30:00,66.3,55.0,30.07,North,349,0.0,3.0,67,4.21,,---,0.02,VWS V14.01,2013-04-06 17:30:00,
2013-04-06 13:32:00,66.4,55.1,30.07,North,349,5.0,10.0,67,4.19,,---,0.02,VWS V14.01,2013-04-06 17:32:00,
2013-04-06 13:42:00,66.6,55.7,30.07,North,0,0.0,0.0,68,4.19,,---,0.02,VWS V14.01,2013-04-06 17:42:00,
2013-04-06 13:47:00,66.8,55.9,30.06,NW,312,0.0,1.0,68,4.19,,---,0.02,VWS V14.01,2013-04-06 17:47:00,
2013-04-06 13:52:00,67.4,56.1,30.06,NW,313,0.0,3.0,67,4.19,,---,0.02,VWS V14.01,2013-04-06 17:52:00,
2013-04-06 13:57:00,67.6,56.3,30.06,North,352,0.0,3.0,67,4.19,,---,0.02,VWS V14.01,2013-04-06 17:57:00,
2013-04-06 14:00:00,67.6,55.4,30.06,North,354,0.0,3.0,65,4.19,,---,0.02,VWS V14.01,2013-04-06 18:00:00,
2013-04-06 14:02:00,67.4,55.2,30.06,North,357,0.0,1.0,65,0.00,,---,0.02,VWS V14.01,2013-04-06 18:02:00,
2013-04-06 14:07:00,67.1,55.4,30.06,North,6,0.0,1.0,66,0.00,,---,0.02,VWS V14.01,2013-04-06 18:07:00,
2013-04-06 14:30:00,66.9,55.2,30.06,North,0,0.0,6.0,66,0.00,,---,0.02,VWS V14.01,2013-04-06 18:30:00,
2013-04-06 15:00:00,66.9,55.2,30.06,NE,54,0.0,6.0,66,0.00,,---,0.02,VWS V14.01,2013-04-06 19:00:00,
2013-04-06 15:30:00,68.3,56.9,30.06,NNW,328,0.0,7.0,67,0.00,,---,0.02,VWS V14.01,2013-04-06 19:30:00,
2013-04-06 16:00:00,67.8,55.6,30.06,North,0,0.0,5.0,65,0.00,,---,0.02,VWS V14.01,2013-04-06 20:00:00,
2013-04-06 16:30:00,67.8,56.0,30.05,North,357,0.0,6.0,66,0.00,,---,0.02,VWS V14.01,2013-04-06 20:30:00,
2013-04-06 17:00:00,67.3,56.4,30.05,NNW,342,1.0,5.0,68,0.00,,---,0.02,VWS V14.01,2013-04-06 21:00:00,
2013-04-06 17:30:00,66.3,55.8,30.06,North,0,0.0,5.0,69,0.00,,---,0.02,VWS V14.01,2013-04-06 21:30:00,
2013-04-06 18:00:00,65.2,56.3,30.06,North,0,0.0,3.0,73,0.00,,---,0.02,VWS V14.01,2013-04-06 22:00:00,
2013-04-06 18:30:00,64.0,55.9,30.06,NNE,21,1.0,3.0,75,0.00,,---,0.02,VWS V14.01,2013-04-06 22:30:00,
2013-04-06 19:00:00,62.4,55.8,30.06,North,357,0.0,3.0,79,0.00,,---,0.02,VWS V14.01,2013-04-06 23:00:00,
2013-04-06 19:30:00,61.2,56.0,30.08,NE,42,0.0,2.0,83,0.00,,---,0.02,VWS V14.01,2013-04-06 23:30:00,
2013-04-06 20:00:00,60.2,56.0,30.07,NE,42,0.0,0.0,86,0.00,,---,0.02,VWS V14.01,2013-04-07 00:00:00,
2013-04-06 20:30:00,59.8,56.2,30.07,NE,42,0.0,0.0,88,0.00,,---,0.02,VWS V14.01,2013-04-07 00:30:00,
2013-04-06 21:00:00,59.5,56.6,30.07,NE,42,0.0,0.0,90,0.00,,---,0.02,VWS V14.01,2013-04-07 01:00:00,
2013-04-06 21:30:00,60.1,57.5,30.08,NE,42,0.0,0.0,91,0.00,,---,0.02,VWS V14.01,2013-04-07 01:30:00,
2013-04-06 22:00:00,60.5,57.9,30.09,NE,42,0.0,0.0,91,0.00,,---,0.02,VWS V14.01,2013-04-07 02:00:00,
2013-04-06 22:30:00,61.0,58.7,30.09,NE,42,0.0,0.0,92,0.00,,---,0.02,VWS V14.01,2013-04-07 02:30:00,
2013-04-06 23:00:00,61.0,58.7,30.09,NE,42,0.0,0.0,92,0.00,,---,0.02,VWS V14.01,2013-04-07 03:00:00,
2013-04-06 23:30:00,60.9,58.9,30.09,NE,42,0.0,0.0,93,0.00,,---,0.02,VWS V14.01,2013-04-07 03:30:00,